Torna al catalogo

PEGASUS DEB

AttivoPO
NORAD 39914·DEBRIS·🇺🇸 United States

Lanciato May 19, 1994 da Vandenberg Space Force Base

Loading…

Prossimi Passaggi (prossime 24 ore)

TLE

AggiornatoSource: Space-Track

Epoca: Sep 14, 2026, 06:01 UTC

1 39914U 94029AFM 26257.25114927  .00002286  00000-0  42468-3 0  9998
2 39914  81.3386 243.6969 0325403 211.5183 146.6150 14.36010417631947

Traccia PEGASUS DEB in tempo reale con AllMySat

Download on the App Store